Weather in Zabrze

Poland     50°18′00″N   18°47′18″E
temp.,
°C
wind,
m/s
gust,
m/s
humid.,
%
clouds,
%
prec.,
mm/h
press.,
hPa
HPBL,
m
1 march, mon
mon101:00+3nnw358574 0.0 1034469
04:00+2n2387100 0.0 1034314
07:00+2nnw2386100 0.0 1035291
10:00+3nnw2281100 0.0 1036323
13:00+5nne227293 0.0 1036536
16:00+6ne11657 0.0 1035537
19:00+4e11763 0.0 103522
22:00+3sse11800 0.0 103622
2 march, tue
tue201:00+2ssw12830 0.0 103622
04:00+1ssw22840 0.0 103527
07:00+1sw24840 0.0 103586
10:00+6wsw36620 0.0 1034279
13:00+11wsw34430 0.0 1034498
16:00+11w23430 0.0 1032297
19:00+7sw22590 0.0 103322
22:00+6wsw12700 0.0 103322
3 march, wed
wed301:00+4ssw01750 0.0 103322
04:00+3ssw12790 0.0 103222
07:00+3ssw12780 0.0 103122
10:00+7s22560 0.0 1030253
13:00+11s23430 0.0 1028502
16:00+12ssw35410 0.0 1025565
19:00+8sw411580 0.0 1025342
22:00+7sw512670 0.0 1024396
4 march, thu
thu401:00+5sw511740 0.0 1022333
04:00+4sw488032 0.0 1020207
07:00+4sw5108032 0.0 1019241
10:00+8sw596540 0.0 1017344
13:00+12wsw464930 0.0 10151002
16:00+12wsw465393 0.0 10131193
19:00+9sw346995 0.0 1012103
22:00+8sw41068100 0.0 1011334
5 march, fri
fri501:00+8wsw41173100 0.6 1009599
04:00+6w1290100 0.3 1008158
07:00+6nnw3593100 5.4 1009440
10:00+3n4894100 2.8 1011507
13:00+3nnw4789100 2.8 1014504
16:00+2nne5774100 0.1 1016887
19:000nne4764100 0.2 10191101
22:000n356543 0.0 1022499